Location: Elstree
(51.6403°N, 0.2969°W)
Time: 14:34:04
(UTC+00:00)

Cosmos 1354 Rocket - Pass Details

Date: 18 June 2021
Orbit: 764 x 783 km, 74.0° (Epoch: 25 July)

Event Time Altitude Azimuth Distance (km) Brightness Sun altitude
Rises 21:10:57 0° 339° (NNW) 3,283 9.0 -6.1°
Reaches altitude 10° 21:13:52 10° 354° (N) 2,353 7.6 -6.3°
Maximum altitude 21:18:02 23° 45° (NE) 1,644 5.8 -6.7°
Drops below altitude 10° 21:22:12 10° 97° (E) 2,344 6.1 -7.1°
Enters shadow 21:24:14 - 108° (ESE) 2,981 6.6 -7.3°
